Regional Weather Roundup
Issued by NWS Cleveland, OH

Home | Current Version | Previous Version | Graphics & Text | Print | Product List | Glossary On
Versions: 1 2 3 4 5 6 7 8 9 10 11 12 13 14 15 16 17 18 19 20 21 22 23 24 25 26 27 28 29 30 31 32 33 34 35 36 37 38 39 40 41 42 43 44 45 46 47 48 49 50
000
ASUS41 KCLE 242210
RWRCLE
OHIO REGIONAL WEATHER ROUNDUP
NATIONAL WEATHER SERVICE WILMINGTON, OH
600 PM EDT WED AUG 24 2016

NOTE: "FAIR" INDICATES FEW OR NO CLOUDS BELOW 12,000 FEET WITH NO
SIGNIFICANT WEATHER AND/OR OBSTRUCTIONS TO VISIBILITY.

OHZ001>008-015>018-024>027-034-035-043-044-242300-
   NORTHWEST OHIO

CITY           SKY/WX    TMP DP  RH WIND       PRES   REMARKS
DEFIANCE       RAIN      78  73  84 S8        30.01R
FINDLAY        FAIR      82  70  66 S16G22    30.02F
TOLEDO EXPRESS PTSUNNY   80  73  79 S10G21    29.99F
TOLEDO EXEC    FAIR      83  74  74 S13       30.01F
LIMA           FAIR      78  74  87 S9        30.03F
$$

OHZ009>014-019>023-028>033-038-089-242300-
   NORTHEAST OHIO

CITY           SKY/WX    TMP DP  RH WIND       PRES   REMARKS
CLE-HOPKINS    PTSUNNY   85  65  51 S13G22    30.08R
CLE-LAKEFRONT  FAIR      87  65  47 S16       30.04S
CUY CO. ARPT   PTSUNNY   86  68  54 S16       30.07S
LORAIN-ELYRIA  FAIR      83  67  58 SW15G24   30.06S
ASHTABULA      FAIR      82  62  50 S8        30.08F
AKRON-CANTON   PTSUNNY   82  64  54 S15G22    30.12R
WOOSTER        FAIR      81  68  64 SW8       30.11R
MANSFIELD      FAIR      80  69  69 S14       30.10F
YOUNGSTOWN     PTSUNNY   83  64  52 SW10      30.11F
$$

OHZ042-051>053-060>062-070>072-077>081-242300-
  SOUTHWEST OHIO

CITY           SKY/WX    TMP DP  RH WIND       PRES   REMARKS
CINC-COVINGTON CLOUDY    84  73  69 S9        30.09F HX  90
CINC-LUNKEN    FAIR      83  74  74 S8        30.07F
HAMILTON       FAIR      83  71  67 VRB3      30.07F
DAYTON         LGT RAIN  81  71  71 S9        30.08F
WRIGHT-PAT AFB FAIR      82  73  75 S9        30.07F
DAYTON GENERAL FAIR      81  72  74 S9        30.07F
WILMINGTON     FAIR      81  73  76 S9        30.10F
$$

OHZ036-037-039>041-045>050-054>059-063>069-073>076-082>088-242300-
  CENTRAL AND SOUTHEAST OHIO

CITY           SKY/WX    TMP DP  RH WIND       PRES   REMARKS
COLUMBUS       CLOUDY    81  69  67 S9        30.10F
OSU AIRPORT    FAIR      81  71  71 S13       30.09F
BOLTON FIELD   PTSUNNY   81  73  78 S9        30.10F
RICKENBACK AFB PTSUNNY   81  71  73 S9        30.09F
NEWARK         NOT AVBL
MARION         FAIR      80  70  71 S15       30.08F
LANCASTER      FAIR      81  71  71 S8        30.12F
ZANESVILLE     FAIR      83  68  60 SW9       30.13R
NEW PHILLY     PTSUNNY   84  65  52 S8        30.12S
$$




USA.gov is the U.S. government's official web portal to all federal, state and local government web resources and services.